SCISAT-1

operational
NORAD ID: 27858 Int'l Des: 2003-036 Owner: CSA Country: CA
LEOCIRCULAR

Über SCISAT-1

Beschreibung wird geladen...

Live-Position

3D-Globus wird geladen...

Nächste Überflüge

Höhenverlauf

Altitude vs Time

uPlot chart will show altitude changes over time

Zweizeiliger Elementsatz

1 27858U 03036A 26063.00996269 .00001329 00000-0 17486-3 0 9994
2 27858 73.9315 20.2948 0005878 114.2203 245.9588 14.81298503215871
Epoch: 4. März 2026 • Age: 19 hours

Aktueller Status

Höhe 648.7 km
Geschwindigkeit 7.53 km/s
Subsatellitenpunkt -51.03°S, 96.31°W
Startdatum 13. Aug. 2003
Alter 22.5 years
Typ other

Technische Details

Klassifizierung Payload
Masse 150.00 kg
Trockenmasse 150.00 kg
Gesamtmasse 150.00 kg
Länge 0.60 m
Durchmesser 1.10 m
Spannweite 1.10 m
Form Cyl
Hersteller BRIS
Bus-Typ MAC-100
Phasenstatus In Orbit
Besitzer/Staat CSA/CA

Große Konstellationen

Loading constellations...